• Join FlightAware (Why Join?)
  • Login
  • US Flag 
12:35AM EDT


 

Airport Tracker/Info


-or-


 

Live Flight TrackerFlight Track Log ✈ SWA718 ✈ 18-Apr-2013 ✈ KMCO - KMDW

Flight Track Log - Related Links

Times and Time Zones

All times are in EDT time to prevent confusion due to time zone crossing. See the SWA718 flight status page for this flight to view local times or setup timezone preferences in your user account.

Time Position Orientation Groundspeed Altitude Reporting Facility
EDT Latitude Longitude Course Direction KTS MPH feet Rate Location/Type
08:41PM 28.3333 -81.2667 159° South 220 253 3,700  Level Orlando TRACON
08:42PM 28.3500 -81.2000 74° East 292 336 6,700 3,120 Climbing Orlando TRACON
08:43PM 28.4167 -81.1667 24° Northeast 306 352 9,700 2,280 Climbing Orlando TRACON
08:45PM 28.6169 -81.2253 346° North 355 409 13,600 2,100 Climbing Jacksonville Center
08:46PM 28.7342 -81.2422 353° North 397 457 16,400 2,520 Climbing Jacksonville Center
08:47PM 28.8511 -81.2617 352° North 414 476 18,700 2,400 Climbing Jacksonville Center
08:48PM 28.9747 -81.2833 351° North 433 498 21,300 2,400 Climbing Jacksonville Center
08:49PM 29.0958 -81.3053 351° North 438 504 23,500 2,100 Climbing Jacksonville Center
08:50PM 29.2214 -81.3269 351° North 444 511 25,500 2,220 Climbing Jacksonville Center
08:51PM 29.3469 -81.3439 353° North 449 517 28,000 2,220 Climbing Jacksonville Center
08:52PM 29.4642 -81.3661 351° North 444 511 30,000 1,800 Climbing Jacksonville Center
08:53PM 29.5811 -81.3858 352° North 428 493 31,600 1,740 Climbing Jacksonville Center
08:54PM 29.6983 -81.4056 352° North 428 493 33,500 1,920 Climbing Jacksonville Center
08:55PM 29.8133 -81.4203 354° North 428 493 35,500 1,680 Climbing Jacksonville Center
08:56PM 29.9258 -81.4067 North 416 479 36,900 720 Climbing Jacksonville Center
08:57PM 30.0406 -81.3978 North 409 471 37,000  Climbing Jacksonville Center
08:58PM 30.1533 -81.3864 North 409 471 37,000  Level Jacksonville Center
08:59PM 30.2700 -81.3750 North 404 465 37,000  Level Jacksonville Center
09:00PM 30.3869 -81.3658 North 404 465 37,000  Level Jacksonville Center
09:01PM 30.5017 -81.3567 North 404 465 37,000  Level Jacksonville Center
09:02PM 30.6164 -81.3478 North 404 465 37,000  Level Jacksonville Center
09:03PM 30.7331 -81.3361 North 409 471 37,000  Level Jacksonville Center
09:04PM 30.8500 -81.3294 North 409 471 37,000  Level Jacksonville Center
09:05PM 30.9647 -81.3203 North 409 471 37,000  Level Jacksonville Center
09:06PM 31.0814 -81.3086 North 409 471 37,000  Level Jacksonville Center
09:07PM 31.2022 -81.2967 North 422 486 37,000  Level Jacksonville Center
09:08PM 31.3192 -81.2875 North 422 486 37,000  Level Jacksonville Center
09:09PM 31.4214 -81.2761 North 416 479 37,000  Level Jacksonville Center
09:10PM 31.5506 -81.2642 North 422 486 37,000  Level Jacksonville Center
09:11PM 31.6675 -81.2547 North 422 486 37,000  Level Jacksonville Center
09:12PM 31.7717 -81.2456 North 422 486 37,000  Level Jacksonville Center
09:13PM 31.9031 -81.2333 North 422 486 37,000  Level Jacksonville Center
09:14PM 32.0197 -81.2239 North 421 484 37,000  Level Jacksonville Center
09:15PM 32.1386 -81.2119 North 421 484 37,000  Level Jacksonville Center
09:16PM 32.2556 -81.2025 North 421 484 37,000  Level Jacksonville Center
09:17PM 32.3744 -81.1903 North 421 484 37,000  Level Jacksonville Center
09:18PM 32.4911 -81.1833 North 426 490 37,000  Level Jacksonville Center
09:19PM 32.5975 -81.1861 359° North 421 484 37,000  Level Jacksonville Center
09:20PM 32.7106 -81.2111 349° North 421 484 37,000  Level Jacksonville Center
09:21PM 32.8258 -81.2411 348° North 416 479 37,000 480 Level Jacksonville Center
09:22PM 32.9389 -81.2664 349° North 416 479 38,000 480 Climbing Jacksonville Center
09:23PM 33.0500 -81.2942 348° North 411 473 38,000  Level Jacksonville Center
09:24PM 33.1608 -81.3194 349° North 411 473 38,000  Level Jacksonville Center
09:25PM 33.2739 -81.3472 348° North 411 473 38,000  Level Jacksonville Center
09:26PM 33.3847 -81.3703 350° North 411 473 38,000  Level Jacksonville Center
09:27PM 33.4936 -81.3958 349° North 406 467 38,000  Level Jacksonville Center
09:28PM 33.6025 -81.4239 348° North 400 460 38,000  Level Jacksonville Center
09:29PM 33.7114 -81.4494 349° North 400 460 38,000  Level Jacksonville Center
09:32PM 33.9706 -81.5114 349° North 410 472 38,000  Level Atlanta Center
09:33PM 34.0819 -81.5383 349° North 410 472 38,000  Level Atlanta Center
09:34PM 34.1908 -81.5650 349° North 410 472 38,000  Level Atlanta Center
09:35PM 34.3000 -81.5922 348° North 410 472 38,000  Level Atlanta Center
09:36PM 34.4281 -81.6236 349° North 417 480 38,000  Level Atlanta Center
09:37PM 34.5350 -81.6508 348° North 412 474 38,000  Level Atlanta Center
09:38PM 34.6503 -81.6831 347° North 407 468 38,000  Level Atlanta Center
09:39PM 34.7614 -81.7128 348° North 413 475 38,000  Level Atlanta Center
09:40PM 34.8767 -81.7397 349° North 413 475 38,000  Level Atlanta Center
09:41PM 34.9900 -81.7647 350° North 413 475 38,000  Level Atlanta Center
09:42PM 35.1072 -81.7969 347° North 418 481 38,000  Level Atlanta Center
09:43PM 35.2225 -81.8269 348° North 418 481 38,000  Level Atlanta Center
09:44PM 35.3253 -81.8522 349° North 418 481 38,000  Level Atlanta Center
09:45PM 35.4406 -81.8797 349° North 413 475 38,000  Level Atlanta Center
09:46PM 35.5536 -81.9097 348° North 413 475 38,000  Level Atlanta Center
09:47PM 35.6711 -81.9375 349° North 413 475 38,000  Level Atlanta Center
09:48PM 35.7967 -81.9700 348° North 413 475 38,000  Level Atlanta Center
09:49PM 35.9119 -82.0006 348° North 418 481 38,000  Level Atlanta Center
09:50PM 36.0272 -82.0283 349° North 418 481 38,000  Level Atlanta Center
09:51PM 36.1425 -82.0564 349° North 418 481 38,000  Level Atlanta Center
09:52PM 36.2533 -82.0819 349° North 413 475 38,000  Level Atlanta Center
09:53PM 36.3664 -82.1128 348° North 413 475 38,000  Level Atlanta Center
09:54PM 36.4814 -82.1331 352° North 413 475 38,000  Level Atlanta Center
09:56PM 36.7322 -82.1642 354° North 419 482 38,000  Level Indianapolis Center
09:57PM 36.8511 -82.1775 355° North 428 493 38,000  Level Indianapolis Center
09:58PM 36.9694 -82.1914 355° North 427 491 38,000  Level Indianapolis Center
09:59PM 37.1061 -82.2083 354° North 425 489 38,000  Level Indianapolis Center
10:00PM 37.2136 -82.2603 339° North 424 488 38,000  Level Indianapolis Center
10:01PM 37.3119 -82.3317 330° Northwest 413 475 38,000  Level Indianapolis Center
10:02PM 37.4117 -82.4044 330° Northwest 414 476 38,000  Level Indianapolis Center
10:03PM 37.5117 -82.4778 330° Northwest 416 479 38,000  Level Indianapolis Center
10:04PM 37.6117 -82.5533 329° Northwest 419 482 38,000  Level Indianapolis Center
10:05PM 37.7119 -82.6269 330° Northwest 417 480 38,000  Level Indianapolis Center
10:06PM 37.8106 -82.7000 330° Northwest 412 474 38,000  Level Indianapolis Center
10:07PM 37.9242 -82.7847 330° Northwest 407 468 38,000  Level Indianapolis Center
10:08PM 38.0228 -82.8600 329° Northwest 411 473 38,000  Level Indianapolis Center
10:09PM 38.1208 -82.9361 329° Northwest 413 475 38,000  Level Indianapolis Center
10:10PM 38.2208 -83.0083 330° Northwest 415 478 38,000  Level Indianapolis Center
10:11PM 38.3192 -83.0822 329° Northwest 412 474 38,000  Level Indianapolis Center
10:12PM 38.4186 -83.1569 330° Northwest 413 475 38,000  Level Indianapolis Center
10:13PM 38.5189 -83.2339 329° Northwest 417 480 38,000  Level Indianapolis Center
10:14PM 38.6189 -83.3106 329° Northwest 418 481 38,000  Level Indianapolis Center
10:15PM 38.7214 -83.3886 329° Northwest 417 480 38,000  Level Indianapolis Center
10:16PM 38.8222 -83.4661 329° Northwest 416 479 38,000 -60 Level Indianapolis Center
10:17PM 38.9233 -83.5447 329° Northwest 420 483 37,900  Descending Indianapolis Center
10:18PM 39.0236 -83.6219 329° Northwest 417 480 38,000  Climbing Indianapolis Center
10:19PM 39.1247 -83.7003 329° Northwest 417 480 38,000  Level Indianapolis Center
10:21PM 39.2278 -83.7789 329° Northwest 421 484 38,000 -540 Level Indianapolis Center
10:22PM 39.3303 -83.8611 328° Northwest 427 491 37,000 -1,680 Descending Indianapolis Center
10:23PM 39.4344 -83.9428 329° Northwest 431 496 34,700 -2,340 Descending Indianapolis Center
10:24PM 39.5425 -84.0278 329° Northwest 446 513 32,300 -2,280 Descending Indianapolis Center
10:25PM 39.6508 -84.1125 329° Northwest 447 514 30,100 -1,500 Descending Indianapolis Center
10:26PM 39.7628 -84.2008 329° Northwest 461 531 29,300 -840 Descending Indianapolis Center
10:27PM 39.8769 -84.2922 328° Northwest 473 544 28,400 -660 Descending Indianapolis Center
10:28PM 39.9917 -84.3833 329° Northwest 476 548 28,000 -240 Descending Indianapolis Center
10:29PM 40.1067 -84.4742 329° Northwest 477 549 28,000  Level Indianapolis Center
10:30PM 40.2181 -84.5644 328° Northwest 470 541 28,000  Level Indianapolis Center
10:31PM 40.3294 -84.6539 329° Northwest 465 535 28,000  Level Indianapolis Center
10:32PM 40.4422 -84.7461 328° Northwest 471 542 28,000  Level Indianapolis Center
10:33PM 40.5558 -84.8394 328° Northwest 476 548 28,000  Level Indianapolis Center
10:34PM 40.6878 -84.9481 328° Northwest 474 545 28,000  Level Indianapolis Center
10:34PM 40.7297 -84.9806 330° Northwest 472 543 28,000 -300 Level Chicago Center
10:35PM 40.8425 -85.0686 329° Northwest 470 541 27,600 -540 Descending Chicago Center
10:36PM 40.9808 -85.0919 353° North 503 579 27,000 -300 Descending Chicago Center
10:37PM 41.1175 -85.1056 356° North 499 574 27,000  Level Chicago Center
10:38PM 41.2403 -85.1517 344° North 472 543 27,000 -480 Level Chicago Center
10:39PM 41.2975 -85.2864 300° West 424 488 26,100 -1,020 Descending Chicago Center
10:40PM 41.3389 -85.4231 292° West 400 460 25,000 -1,080 Descending Chicago Center
10:41PM 41.3808 -85.5561 293° West 389 448 24,000 -840 Descending Chicago Center
10:42PM 41.4217 -85.6906 292° West 388 447 23,400 -840 Descending Chicago Center
10:43PM 41.4694 -85.8458 292° West 375 432 22,400 -1,620 Descending Chicago Center
10:44PM 41.5033 -85.9589 292° West 333 383 20,200 -2,580 Descending Chicago Center
10:45PM 41.5244 -86.0764 284° West 330 380 17,200 -2,640 Descending Chicago Center
10:46PM 41.5239 -86.1856 270° West 302 348 14,900 -2,280 Descending Chicago Center
10:47PM 41.5236 -86.2897 270° West 285 328 12,600 -2,220 Descending Chicago Center
10:49PM 41.5231 -86.3922 270° West 280 322 10,400 -2,040 Descending Chicago Center
10:50PM 41.5217 -86.4842 269° West 258 297 8,500 -1,680 Descending Chicago Center
10:51PM 41.5211 -86.5742 270° West 246 283 7,000 -780 Descending Chicago Center
10:52PM 41.5206 -86.6650 270° West 245 282 7,000  Level Chicago Center
10:53PM 41.5200 -86.7775 270° West 252 290 7,000 -480 Level Chicago Center
10:54PM 41.5192 -86.8692 269° West 250 288 6,100 -540 Descending Chicago Center
10:55PM 41.5186 -86.9581 270° West 246 283 6,000 -60 Descending Chicago Center
10:56PM 41.5289 -87.0483 279° West 255 293 6,000 -180 Level Chicago Center
10:57PM 41.5536 -87.1389 290° West 261 300 5,700 -540 Descending Chicago Center
10:57PM 41.5667 -87.1833 291° West 266 306 5,300 -1,080 Descending Chicago TRACON
10:58PM 41.5833 -87.2667 285° West 263 303 4,400 -1,260 Descending Chicago TRACON
10:59PM 41.6000 -87.3500 285° West 258 297 3,100 -840 Descending Chicago TRACON
11:00PM 41.6242 -87.4203 295° West 244 281 2,900 -60 Descending Chicago Center
11:01PM 41.6397 -87.4875 287° West 210 242 3,000  Climbing Chicago Center
11:02PM 41.6539 -87.5450 288° West 187 215 3,000  Level Chicago Center
11:03PM 41.6711 -87.5953 295° West 167 192 3,000 -120 Level Chicago Center
11:04PM 41.7033 -87.6372 316° Northwest 163 188 2,800 -480 Descending Chicago Center
11:05PM 41.7294 -87.6747 313° West 154 177 2,100 -480 Descending Chicago Center
11:06PM 41.7667 -87.7000 333° Northwest 166 191 1,900 -240 Descending Chicago TRACON
11:07PM 41.8167 -87.6833 14° North 152 175 1,600 -480 Descending Chicago TRACON
11:08PM 41.8000 -87.7167 236° Southwest 127 146 1,000 -600 Descending Chicago TRACON